{"data":{"norad_id":47831,"epoch":"2026-05-24T23:57:21.273696Z","epoch_age_seconds":68450,"freshness":"FRESH","line1":"1 47831U 21018AW  26144.99816289 -.00001685  00000+0 -42540-4 0  9994","line2":"2 47831  53.1589 247.7811 0001015  89.1509 270.9609 15.31707382288452","mean_motion":15.31707382,"eccentricity":0.0001015,"inclination_deg":53.1589,"raan_deg":247.7811,"arg_perigee_deg":89.1509,"mean_anomaly_deg":270.9609,"bstar":-4.254e-5,"rev_number":28845,"period_min":94.012734868441,"perigee_km":470.02283117467,"apogee_km":471.41314873763,"semimajor_km":6848.8549899562,"source":"CELESTRAK","updated_at":"2026-05-25T13:38:16.605779Z"}}